[ hide orbit diagram ]
For accurate long-term ephemerides, please instead use our Horizons system.This orbit viewer was implemented using two-body methods, and hence should not be used for determining accurate long-term trajectories (over several years or decades) or planetary encounter circumstances.
Orbital Elements at Epoch 2459000.5 (2020-May-31.0) TDB
Reference: JPL 37 (heliocentric ecliptic J2000)
Element | Value | Uncertainty (1-sigma) | Units |
e | .06582138950760315 | 3.791e-08 | |
a | 2.180209043690621 | 5.0726e-09 | au |
q | 2.036704655017861 | 8.174e-08 | au |
i | 5.074385779308769 | 3.7043e-06 | deg |
node | 187.4918561408744 | 3.9946e-05 | deg |
peri | 339.5363285923 | 4.697e-05 | deg |
M | 93.81734749758444 | 2.506e-05 | deg |
tp | 2458694.073527832072 (2019-Jul-29.57352783) | 8.1803e-05 | TDB |
period | 1175.832966107834 3.22 | 4.1036e-06 1.124e-08 | d yr |
n | .3061659354488492 | 1.0685e-09 | deg/d |
Q | 2.32371343236338 | 5.4065e-09 | au |
|
| | Orbit Determination Parameters
Additional Information
|
[ show covariance matrix ]
Physical Parameter Table
Parameter |
Symbol |
Value |
Units |
Sigma |
Reference |
Notes |
absolute magnitude |
H |
12.1 |
|
n/a |
PDS3 (MPC 17262) |
|
diameter |
diameter |
8.963 |
km |
0.113 |
urn:nasa:pds:neowise_diameters_albedos::2.0[mainbelt] (http://adsabs.harvard.edu/abs/2014ApJ...791..121M) |
|
rotation period |
rot_per |
34.34 |
h |
n/a |
LCDB (Rev. 2020-October); Warner et al., 2009 |
Result based on less than full coverage, so that the period may be wrong by 30 percent or so. Published Reference List: [Behrend, R. (2001) Observatoire de Geneve web site, http://obswww.unige.ch/~behrend/page_cou.html] |
geometric albedo |
albedo |
0.318 |
|
0.052 |
urn:nasa:pds:neowise_diameters_albedos::2.0[mainbelt] (http://adsabs.harvard.edu/abs/2014ApJ...791..121M) |
|
|
1651 Behrens | Discovered 1936 Apr. 23 by M. Laugier at Nice. |
Named in memory of Johann Gerhard Behrens (1889-1978), pastor at Detern, well known for his orbit computations on comets and minor planets. Name proposed by O. Kippes, who found some of the identifications involving this planet. |
NOTE: some special characters may not display properly (any characters within {} are an attempt to place the proper accent above a character) |
Reference: MPC 5523 | Last Updated: 2006-03-21 |
|
[ show close-approach data ]
Alternate Designations
1936 HD = 1939 EJ = 1940 QD = 1944 YA = 1947 WA = 1950 TB4 = 1952 FF = 1952 HB = 1952 KG = 1958 BC = 1961 AB = 1963 UQ |
|
|